FENGYUN 1C DEB

Satellite information

Favourite Embed

Satellite Type and Status

DEBRISIN ORBIT

Key statistics

Satellite FENGYUN 1C DEB at a glance.

Uptime

9714

Days in orbit

Revolutions

≈ 14.1

Per day

Orbit

SSO

Sun Synchronous Orbit

Inclination

98.5

Latest

Satellite identification and parameters

Extended collection of information and parameters for FENGYUN 1C DEB.

Object identification

Identified? True

Debris? True

Object name: FENGYUN 1C DEB

International designator: 1999-025BTL

Object number (NORAD): 31424

Object ID (CCSDS): 31424

Country: PEOPLES REPUBLIC OF CHINA (PRC)

Current information (Y/N): Y

RCS size: SMALL

Orbital parameters

Period: 102.247 minutes

Inclination: 98.4819 deg

SMA: 7243.138 km

Apoapsis: 933.448 km

Periapsis: 796.559 km

RAAN: 28.9671 deg

Eccentricy: 0.0094496

Argument of periapsis: 110.6479 deg

Mean anomaly: 250.4855 deg

Mean motion: 14.08356451 rev/day

Mean motion (dot): 0.00000506 rev/day2

B* drag term: 0.00030603 1/REarth

Two-line elements (TLE)

Creation date: Dec. 11, 2025, 7:46 a.m.

Reference frame: TEME

Reference center: EARTH

Epoch: Dec. 10, 2025, 8:39 p.m. UTC

TLE line 0: 0 FENGYUN 1C DEB

TLE line 1: 1 31424U 99025BTL 25344.86052454 .00000506 00000-0 30603-3 0 9997

TLE line 2: 2 31424 98.4819 28.9671 0094496 110.6479 250.4855 14.08356451631442

Live tracking on map

Real-time ground track for satellite FENGYUN 1C DEB.

In-orbit conjunctions

A list of the most updated potential collisions computed for object FENGYUN 1C DEB.

Target Orbit TCA Probability of collision Miss distance Type
FENGYUN 1C DEB SSO 2025-07-26 10:17:14 0.0001139551 164.0 (m) DEBRIS
COSMOS 660 LEO 2025-03-17 02:59:07 0.0003558247 296.0 (m) PAYLOAD
THOR BURNER 2A R/B SSO 2024-11-15 06:56:19 0.0002013347 746.0 (m) ROCKET BODY
COSMOS 1607 LEO 2024-10-20 02:52:54 0.0002277763 641.0 (m) PAYLOAD

Associated space launch

Chinese polar orbiting meteorological satellite

FENGYUN 1C DEB was lifted into orbit during the mission ‘Long March 4B | Feng Yun 1C’, on board a Long March 4B space rocket.

The launch took place on May 10, 1999, 1:33 a.m. from Launch Complex 7.

For more information about the launch, click the button.

Launch to space Long March 4B | Feng Yun 1C
Long March 4B | Feng Yun 1C

Agency: N/A

Status: Launch Successful

Launch date: May 10, 1999, 1:33 a.m. UTC

Rocket: Long March 4B

Launch pad: Launch Complex 7

Location: Taiyuan Satellite Launch Center, People's Republic of China

...

Latest news about this satellite

There are no fresh news available about this satellite. Check back as we update our databases every day.


Newsletter sign-up

Weekly statistics, charts and insights to help you stay on top of the space industry.